FW5881 Weather Reports


Display with metric or nautical units.
time (UTC)temp
F
wind
direction
speed
MPH
gust
MPH
rain 1hr
in
rain 24hr
in
rain mn
in
humidity
%
barometer
mb
20210925115004 42 108 2.0 4.0 0.00 0.00 0.00 63 1012.1
20210925113957 43 141 1.0 4.0 0.00 0.00 0.00 62 1012.4
20210925113000 44 105 1.0 4.0 0.00 0.00 0.00 60 1012.8
20210925111953 44 106 2.0 5.0 0.00 0.00 0.00 59 1013.0
20210925110953 45 109 3.0 5.0 0.00 0.00 0.00 58 1013.2
20210925105951 45 91 3.0 6.0 0.00 0.00 0.00 58 1013.3
20210925104952 45 98 3.0 9.0 0.00 0.00 0.00 58 1013.2
20210925103948 45 78 3.0 6.0 0.00 0.00 0.00 57 1013.2
20210925102946 46 102 3.0 6.0 0.00 0.00 0.00 57 1013.6
20210925101945 47 118 4.0 9.0 0.00 0.00 0.00 55 1013.8
20210925100944 46 114 4.0 10.0 0.00 0.00 0.00 56 1013.7
20210925095942 46 101 3.0 6.0 0.00 0.00 0.00 57 1013.6
20210925094942 46 103 2.0 4.0 0.00 0.00 0.00 58 1013.6
20210925093940 47 101 4.0 9.0 0.00 0.00 0.00 55 1014.2
20210925092940 48 81 4.0 10.0 0.00 0.00 0.00 53 1014.4
20210925091940 48 91 5.0 10.0 0.00 0.00 0.00 53 1014.5
20210925090939 48 92 5.0 11.0 0.00 0.00 0.00 54 1014.5
20210925085943 47 104 4.0 11.0 0.00 0.00 0.00 55 1014.3
20210925084942 47 98 4.0 9.0 0.00 0.00 0.00 55 1014.2
20210925083941 48 47 4.0 10.0 0.00 0.00 0.00 53 1014.4
20210925082929 49 96 6.0 12.0 0.00 0.00 0.00 52 1015.0
20210925081929 49 33 6.0 12.0 0.00 0.00 0.00 52 1014.9
20210925080929 49 79 6.0 12.0 0.00 0.00 0.00 52 1014.9
20210925075925 49 76 6.0 12.0 0.00 0.00 0.00 52 1014.9
20210925074925 49 123 5.0 11.0 0.00 0.00 0.00 52 1014.9
20210925073922 49 111 5.0 9.0 0.00 0.00 0.00 52 1015.2
20210925072919 50 79 6.0 13.0 0.00 0.00 0.00 51 1015.4
20210925071917 49 105 5.0 10.0 0.00 0.00 0.00 52 1015.3
20210925070919 49 109 5.0 10.0 0.00 0.00 0.00 52 1015.4
20210925065917 49 105 5.0 9.0 0.00 0.00 0.00 52 1015.4
20210925064915 49 96 4.0 10.0 0.00 0.00 0.00 53 1015.4
20210925063916 50 122 4.0 9.0 0.00 0.00 0.00 52 1015.5
20210925062915 50 141 4.0 11.0 0.00 0.00 0.00 52 1015.5
20210925061914 50 113 3.0 6.0 0.00 0.00 0.00 51 1015.8
20210925060913 51 124 3.0 7.0 0.00 0.00 0.00 50 1016.0
20210925055913 51 96 5.0 10.0 0.00 0.00 0.00 49 1016.1
20210925054910 52 108 6.0 13.0 0.00 0.00 0.00 47 1016.6
20210925053907 53 96 8.0 16.0 0.00 0.00 0.00 46 1016.7
20210925052908 53 116 6.0 11.0 0.00 0.00 0.00 46 1016.9
20210925051904 53 116 6.0 12.0 0.00 0.00 0.00 46 1016.9
20210925050903 53 79 6.0 14.0 0.00 0.00 0.00 47 1016.9
20210925045903 53 106 5.0 11.0 0.00 0.00 0.00 47 1017.0
20210925044859 54 105 5.0 12.0 0.00 0.00 0.00 45 1017.2
20210925043859 54 97 5.0 11.0 0.00 0.00 0.00 45 1017.3
20210925042859 54 107 6.0 12.0 0.00 0.00 0.00 45 1017.2
20210925041859 53 68 6.0 17.0 0.00 0.00 0.00 46 1017.1
20210925040859 54 106 4.0 7.0 0.00 0.00 0.00 46 1017.3
20210925035900 55 106 6.0 12.0 0.00 0.00 0.00 44 1017.7
20210925034901 55 95 8.0 14.0 0.00 0.00 0.00 43 1017.9
20210925033858 56 81 5.0 14.0 0.00 0.00 0.00 42 1018.3
20210925032859 57 77 4.0 7.0 0.00 0.00 0.00 39 1018.7
20210925031857 58 77 4.0 7.0 0.00 0.00 0.00 37 1018.7
20210925030856 56 94 3.0 7.0 0.00 0.00 0.00 38 1018.2
20210925025855 56 74 3.0 5.0 0.00 0.00 0.00 39 1017.8
20210925024853 56 69 3.0 5.0 0.00 0.00 0.00 39 1017.7
20210925023854 56 80 2.0 5.0 0.00 0.00 0.00 40 1017.8
20210925022851 57 79 2.0 5.0 0.00 0.00 0.00 40 1017.8
20210925021851 57 92 2.0 4.0 0.00 0.00 0.00 39 1018.1
20210925020845 58 77 2.0 4.0 0.00 0.00 0.00 38 1018.3
20210925015845 59 81 1.0 3.0 0.00 0.00 0.00 38 1018.8
20210925014845 60 57 1.0 3.0 0.00 0.00 0.00 36 1019.3
20210925013846 61 58 1.0 3.0 0.00 0.00 0.00 37 1019.3
20210925012845 63 51 1.0 4.0 0.00 0.00 0.00 36 1020.0
20210925011844 65 343 3.0 7.0 0.00 0.00 0.00 31 1020.7
20210925010832 66 326 6.0 9.0 0.00 0.00 0.00 30 1021.3
20210925005828 68 304 4.0 7.0 0.00 0.00 0.00 29 1021.9
20210925004827 69 314 5.0 8.0 0.00 0.00 0.00 28 1022.3
20210925003824 69 324 6.0 10.0 0.00 0.00 0.00 27 1022.5
20210925002823 70 324 8.0 13.0 0.00 0.00 0.00 26 1022.8
20210925001820 71 299 8.0 13.0 0.00 0.00 0.00 26 1023.2
20210925000820 71 311 8.0 12.0 0.00 0.00 0.00 26 1023.4
20210924235822 72 297 8.0 14.0 0.00 0.00 0.00 24 1023.6
20210924234818 72 301 9.0 14.0 0.00 0.00 0.00 25 1023.8
20210924233816 73 293 9.0 15.0 0.00 0.00 0.00 26 1024.0
20210924232813 73 301 9.0 15.0 0.00 0.00 0.00 25 1024.0
20210924231814 73 303 9.0 15.0 0.00 0.00 0.00 25 1024.0
20210924230811 74 322 6.0 12.0 0.00 0.00 0.00 24 1024.2
20210924225809 74 302 8.0 12.0 0.00 0.00 0.00 25 1024.6
20210924224812 75 299 5.0 12.0 0.00 0.00 0.00 25 1025.0
20210924223809 75 275 3.0 6.0 0.00 0.00 0.00 23 1025.2
20210924222806 75 274 3.0 8.0 0.00 0.00 0.00 22 1025.3
20210924221804 75 145 4.0 7.0 0.00 0.00 0.00 24 1025.1
20210924220803 75 295 6.0 12.0 0.00 0.00 0.00 23 1025.1
20210924215802 75 282 4.0 10.0 0.00 0.00 0.00 26 1025.2
20210924214801 74 302 3.0 9.0 0.00 0.00 0.00 22 1025.2
20210924213802 74 310 2.0 7.0 0.00 0.00 0.00 24 1025.1
20210924212803 73 43 3.0 9.0 0.00 0.00 0.00 25 1025.0
20210924211759 74 308 2.0 4.0 0.00 0.00 0.00 21 1025.2
20210924210756 74 5 4.0 10.0 0.00 0.00 0.00 21 1025.5
20210924205756 75 332 4.0 9.0 0.00 0.00 0.00 20 1026.1
20210924204757 75 270 3.0 7.0 0.00 0.00 0.00 20 1026.3
20210924203756 74 216 4.0 7.0 0.00 0.00 0.00 22 1025.7
20210924202757 73 274 2.0 5.0 0.00 0.00 0.00 23 1025.6
20210924201757 72 345 4.0 6.0 0.00 0.00 0.00 24 1025.5
20210924200758 72 285 1.0 5.0 0.00 0.00 0.00 22 1025.6
20210924195758 72 306 4.0 7.0 0.00 0.00 0.00 21 1025.6
20210924194753 71 327 3.0 7.0 0.00 0.00 0.00 25 1025.3
20210924193751 69 262 4.0 10.0 0.00 0.00 0.00 24 1024.7
20210924192750 69 277 4.0 11.0 0.00 0.00 0.00 28 1024.9
20210924191747 68 292 4.0 9.0 0.00 0.00 0.00 26 1024.5
20210924190745 68 335 3.0 7.0 0.00 0.00 0.00 31 1024.7
20210924185744 68 247 2.0 7.0 0.00 0.00 0.00 33 1024.5
20210924184742 67 238 4.0 7.0 0.00 0.00 0.00 32 1024.1
20210924183742 68 291 2.0 5.0 0.00 0.00 0.00 33 1024.7
20210924182740 67 274 2.0 5.0 0.00 0.00 0.00 40 1024.6
20210924181740 66 180 2.0 5.0 0.00 0.00 0.00 37 1024.2
20210924180741 64 145 1.0 3.0 0.00 0.00 0.00 37 1023.8
20210924175738 64 239 2.0 4.0 0.00 0.00 0.00 38 1023.9
20210924174738 62 170 3.0 5.0 0.00 0.00 0.00 41 1023.2
20210924173739 61 226 2.0 5.0 0.00 0.00 0.00 41 1023.0
20210924172739 62 316 2.0 5.0 0.00 0.00 0.00 41 1023.3
20210924171741 62 211 2.0 5.0 0.00 0.00 0.00 39 1023.3
20210924170740 61 162 2.0 3.0 0.00 0.00 0.00 42 1023.2
20210924165736 59 210 2.0 3.0 0.00 0.00 0.00 43 1022.5
20210924164738 58 206 2.0 3.0 0.00 0.00 0.00 47 1022.1
20210924163736 56 216 2.0 4.0 0.00 0.00 0.00 50 1021.5
20210924162723 56 69 2.0 4.0 0.00 0.00 0.00 50 1021.6
20210924161724 55 220 2.0 3.0 0.00 0.00 0.00 51 1020.9
20210924160731 53 180 2.0 4.0 0.00 0.00 0.00 54 1020.2
20210924155722 52 185 2.0 3.0 0.00 0.00 0.00 56 1020.0
20210924154709 51 248 3.0 4.0 0.00 0.00 0.00 56 1019.3
20210924153704 50 224 1.0 3.0 0.00 0.00 0.00 58 1019.3
20210924152702 50 180 2.0 3.0 0.00 0.00 0.00 57 1019.2
20210924151653 49 158 1.0 2.0 0.00 0.00 0.00 61 1018.5
20210924150653 47 158 0.0 2.0 0.00 0.00 0.00 66 1017.7
20210924145653 44 159 0.0 2.0 0.00 0.00 0.00 70 1016.6
20210924144650 42 159 1.0 2.0 0.00 0.00 0.00 72 1015.6
20210924143651 40 159 1.0 2.0 0.00 0.00 0.00 75 1014.8
20210924142652 39 158 1.0 2.0 0.00 0.00 0.00 77 1014.2
20210924141646 39 136 1.0 3.0 0.00 0.00 0.00 78 1014.1
20210924140645 38 180 2.0 3.0 0.00 0.00 0.00 79 1013.5
20210924135645 37 135 1.0 2.0 0.00 0.00 0.00 79 1013.0
20210924134645 36 131 1.0 5.0 0.00 0.00 0.00 81 1012.5
20210924133644 36 13 1.0 3.0 0.00 0.00 0.00 80 1012.4
20210924132646 36 29 1.0 2.0 0.00 0.00 0.00 79 1012.5
20210924131643 37 144 0.0 2.0 0.00 0.00 0.00 78 1012.8
20210924130638 37 147 1.0 2.0 0.00 0.00 0.00 79 1012.8
20210924125638 38 122 1.0 3.0 0.00 0.00 0.00 79 1013.0
20210924124637 38 103 1.0 3.0 0.00 0.00 0.00 79 1013.0
20210924123633 37 100 1.0 3.0 0.00 0.00 0.00 80 1012.6
20210924122631 37 93 2.0 4.0 0.00 0.00 0.00 80 1012.5
20210924121632 37 84 1.0 2.0 0.00 0.00 0.00 78 1012.4
20210924120629 37 185 1.0 2.0 0.00 0.00 0.00 78 1012.4